カタログに戻る

KUIPER-00229

運用中通信LEO
NORAD 68578·PAYLOAD·🇺🇸 United States

打ち上げ Apr 4, 2026 から Cape Canaveral Space Force Station

Loading…

次のパス (今後24時間)

TLE

最新Source: CelesTrak SupGP

元期: Sep 14, 2026, 21:06 UTC

1 68578C 26072F   26257.87945602 -.00000802  00000+0 -10496-3 0  2575
2 68578  51.8999 159.0364 0000740  98.6476 308.7757 14.79922794    18

AllMySatでKUIPER-00229をリアルタイム追跡

Download on the App Store